Lid_Strength_Index
7 7 7 7 7 7 7 7 7 7 7 8 8 8 8 8 8 8 8 8 9 9 8 9 9 9 9 8 8 7 8 8 9 7 6 5 5 5 5 4 4 4 4
7 8 8 7 7 7 8 7 7 7 7 8 8 8 8 8 8 8 8 8 9 9 9 9 9 9 9 9 8 7 8 7 8 9 6 6 6 5 5 5 5 5 4
8 8 8 8 7 7 8 8 7 7 7 7 8 8 8 8 8 8 8 8 8 9 9 9 9 9 10 9 8 7 7 7 7 8 7 6 6 6 6 5 6 5 5
8 8 8 8 8 7 7 7 8 8 8 7 8 8 8 8 8 8 8 8 8 9 9 9 9 9 9 9 8 7 7 7 7 7 7 7 7 6 6 7 8 7 6
9 9 8 8 8 8 7 7 7 8 8 7 7 8 8 9 9 8 8 8 9 9 9 9 9 8 8 8 9 7 7 7 7 7 8 8 7 7 8 7 9 7 7
10 9 8 8 8 8 8 8 8 8 8 8 8 8 8 8 8 7 7 8 8 9 9 9 9 8 8 8 7 6 6 7 8 8 8 8 8 7 7 8 9 9 10
10 9 9 9 9 9 8 8 8 8 8 8 8 8 8 8 8 8 7 8 8 8 9 9 9 9 8 8 8 7 6 7 6 7 9 8 8 8 7 11 11 10 9
10 10 9 9 9 9 8 8 8 8 8 7 7 8 8 8 7 7 7 8 7 7 8 8 8 8 8 8 9 9 8 8 7 8 8 8 7 6 6 6 8 11 8
10 10 10 9 10 9 9 8 8 8 8 7 7 7 7 8 7 7 7 8 7 7 7 7 8 8 7 7 10 10 9 8 7 7 7 7 6 6 6 6 7 8 8
9 10 10 10 10 10 9 8 8 8 8 7 8 7 7 7 7 7 7 8 8 8 7 8 7 7 7 7 9 10 10 11 8 8 8 8 8 7 8 7 7 9 9
9 9 10 10 10 10 9 9 9 9 9 8 8 8 7 7 7 7 7 7 7 8 9 9 8 7 7 7 8 9 8 8 8 8 8 8 8 8 7 7 7 8 8
9 9 9 9 10 11 10 10 9 10 10 9 9 8 8 7 7 7 7 6 6 8 9 9 9 8 7 7 7 8 8 8 8 8 9 9 9 8 8 8 8 7 7
9 8 8 9 9 10 10 10 11 11 11 10 10 9 9 8 8 7 7 6 6 7 8 8 8 8 7 7 7 8 8 8 9 9 9 10 9 9 9 9 8 8 8
10 9 9 10 10 10 10 10 11 11 11 11 10 10 9 8 8 8 8 6 6 6 6 8 8 9 7 7 7 8 9 9 9 9 9 9 9 10 10 9 9 9 9
10 11 11 11 11 10 10 10 10 10 9 10 10 9 9 9 8 7 8 8 6 6 6 6 8 9 9 8 8 8 9 10 10 9 10 10 10 10 10 10 10 10 10
12 11 11 11 11 11 11 11 9 9 9 9 9 9 8 7 7 7 7 7 7 6 6 7 8 9 9 9 9 9 9 11 11 10 10 10 10 11 11 10 10 10 11
12 11 11 12 11 12 12 12 12 10 9 9 9 9 8 8 7 8 7 7 7 7 7 7 8 8 8 9 8 9 10 11 11 11 11 10 10 10 11 11 11 11 11
12 12 12 12 12 12 12 12 12 12 11 10 8 8 7 7 7 8 8 7 8 8 7 8 8 8 8 8 9 9 9 10 11 12 12 10 10 11 11 11 11 11 11
12 12 12 12 11 12 12 12 11 11 12 11 9 9 9 8 7 7 7 8 8 8 8 8 8 8 8 8 9 9 9 10 11 12 12 11 10 11 11 11 11 11 11
11 12 12 12 12 12 12 12 12 12 12 11 10 10 9 10 9 8 7 8 8 7 7 7 7 8 8 8 9 10 10 10 11 12 12 12 11 11 11 11 11 12 12
11 12 12 12 11 11 12 12 11 12 12 11 11 10 10 10 10 8 7 7 7 7 7 7 7 8 8 9 9 10 11 11 11 12 12 12 12 12 11 11 11 12 12
11 11 11 11 12 12 11 11 11 11 11 11 11 10 10 10 10 9 8 7 7 6 6 7 7 7 8 8 9 10 11 12 11 11 12 12 13 12 12 11 11 12 12
11 11 11 12 12 12 13 12 11 11 11 10 10 10 9 9 9 8 8 7 6 6 6 7 7 7 7 8 9 9 11 11 11 11 11 12 13 13 13 12 12 12 13
10 11 11 11 12 12 12 13 12 12 12 11 10 9 9 8 8 9 8 7 7 6 6 6 7 7 8 8 9 9 9 10 10 11 11 12 12 13 13 13 13 12 13
10 11 11 12 11 11 11 11 11 11 11 11 11 10 10 9 9 9 8 8 8 7 7 7 7 8 8 9 9 10 10 11 11 11 11 12 12 12 13 13 14 14 13
11 11 10 9 9 9 10 10 10 10 10 10 10 10 10 10 10 9 9 9 9 9 8 8 8 8 8 8 9 10 11 11 11 12 11 12 12 12 13 13 14 14 15